FOX-1B (AO-91) (43017 NORAD) Tracking and Keplerian Element Data

This shows tracking and keplerian element data for the satellite.

Feedback or suggestion? Click here.




ElementValue
Catalog43017
NameFOX-1B (AO-91)
Epoch Orbit4003
Epoch Day228.5981816
Epoch Year2018
RAAN157.2142
Inclination97.7071
Eccentricity0.0261101
Argument of Perigee75.0473
Mean Anonmoly287.9486
Mean Motion14.78133866
Decay Rate6.83E-06
L11 43017U 17073E 18228.59818160 .00000683 00000-0 58290-4 0 9997
L22 43017 97.7071 157.2142 0261101 75.0473 287.9486 14.78133866 40035

Live tracking and technical data element details for FOX-1B (AO-91) (NORAD 43017). FOX-1B (AO-91) can be tracked NOW for your location showing map with azimuth and elevation plus other details from your city location.

Track the satellite on the map from your city or location and see movement details for azimuth, elevation, latitude, longitude, range, height, and movement on the map or in text.







IsCatalogInMostPopularTable: catalog: 43017, numindb: 233
Update: records affected: 1



GetName: 43017 FOX-1B (AO-91)

Hit Count: updated at: Fri, 17 Aug 2018 13:20:15 GMT